GFSMA_sfc_thetae_000.txt.gz
Theta_e
291 291 290 289 288 288 288 288 288 289 289 290 291 291 290 290 291 292 293 300 303 306 309 312 314 317 318 319 320 321 322 323 325 329 330 331 332 337 341 343 344 344 344
290 290 289 289 288 288 287 288 287 288 288 289 289 290 289 290 290 291 292 293 301 303 306 310 312 314 315 316 317 318 320 320 321 322 323 324 328 331 332 337 340 341 342
289 288 288 287 287 287 287 287 287 287 286 288 287 288 289 290 290 290 290 291 293 299 303 307 309 311 312 314 315 315 317 318 319 320 321 321 322 323 325 328 329 338 340
289 287 287 286 287 286 286 286 285 285 285 285 285 286 287 288 289 289 290 290 291 293 298 304 307 308 309 310 312 314 315 319 321 321 320 319 318 320 327 327 328 329 337
288 287 286 286 286 286 285 286 284 284 284 284 285 286 286 287 287 289 289 290 291 293 293 299 304 306 308 309 311 310 312 313 313 315 316 320 322 323 325 323 324 331 329
287 286 285 285 286 285 284 284 283 284 284 284 286 286 285 286 286 286 287 289 289 290 292 293 295 297 303 306 307 309 309 310 314 312 312 314 317 320 320 320 322 323 329
286 285 285 284 285 284 284 283 284 283 283 283 282 283 284 285 285 285 285 286 288 289 289 290 291 292 294 300 302 305 308 310 310 308 311 309 311 315 316 316 319 320 324
285 285 284 283 283 283 283 283 283 282 282 283 281 280 279 282 285 285 285 285 285 286 288 290 290 292 290 291 295 303 303 304 305 308 308 306 308 310 312 313 314 316 322
285 284 284 283 283 283 282 282 282 282 281 281 282 281 278 277 280 284 284 285 284 285 286 287 287 288 291 291 292 294 299 300 303 304 304 305 308 309 309 308 310 313 317
284 284 283 283 282 282 281 282 283 281 281 280 281 283 281 281 278 277 282 282 284 284 284 285 286 287 288 289 291 294 296 297 298 300 302 304 305 306 306 307 309 311 312
283 283 282 281 281 281 281 282 281 281 281 280 280 280 280 279 279 278 277 279 282 282 284 284 284 285 286 287 288 290 295 297 298 298 299 300 302 305 306 307 308 309 310
282 282 282 281 281 281 281 281 281 280 280 280 279 279 279 278 278 278 276 277 277 280 282 283 283 284 285 286 289 293 293 294 295 295 296 297 298 300 302 305 306 308 309
281 281 281 280 280 280 280 280 280 279 279 278 278 278 279 279 280 279 278 277 276 278 279 282 283 284 286 286 287 290 289 290 291 292 293 294 296 297 299 301 303 304 306
283 282 281 280 279 279 279 279 278 278 278 279 278 278 279 279 279 279 279 277 275 276 278 278 281 282 283 284 284 286 283 286 288 289 290 291 293 294 296 297 299 300 301
281 280 280 279 279 279 279 278 278 278 278 278 278 279 278 279 279 279 279 278 276 272 274 277 277 281 281 281 281 281 280 282 285 286 287 288 289 291 292 294 296 298 300
280 279 279 279 278 278 278 277 277 277 277 277 278 277 277 277 277 276 277 276 276 272 270 276 276 277 278 278 279 278 278 280 281 283 284 285 286 288 290 292 293 295 296
279 279 279 278 277 277 277 276 276 276 276 275 275 275 275 275 274 274 274 274 273 273 269 273 275 275 275 275 276 276 276 276 276 280 282 284 285 286 288 289 290 292 293
279 279 278 277 277 276 276 276 275 275 273 273 274 273 272 274 272 272 272 271 271 272 270 268 272 272 272 273 274 273 275 276 276 279 282 283 285 286 287 289 290 291 292
278 277 277 277 276 276 275 275 275 274 273 274 273 272 272 271 271 271 270 270 270 271 271 269 269 271 272 273 273 274 274 275 277 279 282 282 283 284 286 287 288 289 290
277 277 277 276 275 275 274 274 274 273 273 273 273 272 272 271 271 271 270 270 270 268 269 269 269 269 271 273 274 273 273 276 276 278 280 280 282 283 284 286 287 288 290
277 276 275 274 274 274 274 274 274 272 271 271 272 272 272 272 273 273 270 269 269 268 268 268 269 270 271 273 273 274 273 273 274 276 276 277 279 280 282 284 284 286 287
275 275 274 273 272 274 278 278 275 272 272 271 271 271 272 272 273 275 276 277 276 272 271 271 272 272 272 272 274 274 273 272 270 276 274 274 277 276 279 280 284 285 286
274 273 272 272 271 272 279 280 277 273 272 272 272 272 272 272 272 272 274 276 277 278 278 275 273 273 273 274 274 273 273 272 271 274 275 272 276 275 278 279 283 284 286
273 273 271 272 271 272 280 281 278 274 273 272 272 272 271 272 273 273 273 272 273 274 275 276 275 275 276 276 276 276 275 274 275 276 276 271 275 274 277 278 283 284 286
273 272 272 271 270 271 281 281 279 273 273 272 273 273 272 272 274 276 274 272 273 274 278 278 278 279 279 279 278 274 270 269 268 271 275 274 274 275 277 277 280 284 286
273 272 270 271 271 270 280 280 278 272 270 271 272 273 275 273 276 277 273 273 272 273 272 272 274 271 273 271 274 272 270 267 268 268 274 273 274 275 272 277 279 280 281

GFSMA_sfc_thetae_003.txt.gz
Theta_e
290 290 289 288 287 288 287 287 287 288 288 289 289 288 288 288 289 290 291 298 302 306 309 312 314 315 317 318 318 319 320 321 321 321 322 323 324 326 327 329 332 338 342
290 289 288 287 287 287 287 287 286 286 286 287 287 288 288 288 289 289 290 290 299 302 306 310 312 313 314 316 317 317 318 319 319 320 320 321 322 322 324 325 326 328 332
289 289 288 286 286 286 287 286 286 285 285 286 285 286 287 288 288 288 289 290 291 298 303 307 309 310 310 311 313 315 316 319 320 320 319 318 320 320 320 327 328 328 331
289 288 287 286 286 286 285 285 284 284 284 284 284 285 286 287 287 288 289 289 290 292 295 303 307 309 310 311 312 311 313 313 313 314 316 317 316 320 324 324 324 326 328
289 288 286 285 285 285 284 285 283 283 282 283 284 285 285 285 286 288 287 288 289 289 291 297 300 302 307 308 309 310 310 311 314 313 311 312 315 316 318 320 321 323 324
288 287 285 285 285 284 284 283 282 283 283 282 284 284 284 285 285 286 285 287 288 288 288 289 291 293 299 302 304 307 309 312 310 308 308 312 311 310 312 315 316 319 321
287 285 284 284 284 283 283 282 283 282 282 282 281 282 283 285 284 284 284 285 286 286 288 288 288 289 290 298 299 303 304 306 306 307 309 309 308 309 311 313 314 313 314
285 285 284 283 283 282 282 282 282 281 281 281 280 280 279 281 284 284 284 285 283 285 286 287 287 288 288 290 293 298 301 303 304 305 305 306 307 310 312 312 312 311 313
285 285 284 283 283 282 282 281 281 281 280 281 281 280 277 277 279 282 283 283 283 283 283 285 286 287 289 287 291 293 297 299 302 303 304 305 306 306 307 309 310 311 312
284 284 284 283 282 282 281 281 282 281 280 279 281 282 281 280 277 276 281 281 282 282 282 283 284 285 286 287 290 293 296 298 298 299 300 301 302 303 305 306 307 309 311
283 283 283 282 281 281 281 281 281 280 280 280 280 279 279 278 278 278 277 278 280 281 282 282 283 283 285 286 286 291 294 294 294 294 296 297 298 300 302 303 305 307 309
282 282 282 281 281 280 281 281 281 280 280 280 279 279 279 277 278 277 276 276 277 279 281 282 282 283 284 286 290 290 290 291 292 292 293 293 295 296 298 301 302 304 305
282 281 281 280 281 281 280 281 280 280 279 278 278 278 279 279 279 279 278 276 276 278 279 281 282 283 286 285 285 287 286 288 289 290 291 292 293 293 295 296 298 300 301
283 282 281 280 280 280 280 280 280 279 279 279 278 278 279 279 279 279 279 277 275 276 278 278 280 281 281 282 283 284 282 284 286 288 289 289 290 291 292 293 295 297 298
283 281 281 280 279 280 280 279 279 278 278 278 278 278 278 278 279 279 279 279 276 272 274 277 277 281 280 280 280 280 280 282 284 285 286 287 288 289 290 292 293 294 296
281 280 280 280 279 279 279 279 278 278 278 278 278 278 278 277 277 277 277 277 276 273 270 275 276 277 278 278 279 278 278 280 281 282 284 285 286 287 289 290 291 293 294
280 280 280 279 279 279 278 278 277 277 277 277 277 277 276 276 274 274 274 274 274 274 270 273 275 275 275 275 276 276 277 276 277 280 282 284 285 287 288 288 289 291 292
280 280 279 279 279 279 278 278 276 277 276 275 275 275 273 274 272 272 272 272 272 272 271 269 272 273 273 274 274 274 275 277 277 279 283 285 285 285 286 287 288 289 290
280 280 279 279 278 278 277 277 277 276 276 276 275 274 272 272 270 270 270 270 271 271 271 270 269 272 272 274 273 275 276 277 278 281 282 282 283 284 285 286 287 287 288
279 279 279 279 278 278 277 277 276 275 275 275 275 274 272 271 271 270 270 270 270 269 269 269 269 270 272 274 275 274 274 276 276 278 280 280 282 282 283 284 285 285 286
280 279 278 278 277 277 277 276 276 274 273 272 272 272 272 272 274 273 270 269 269 267 267 267 269 271 272 273 272 274 273 274 275 276 276 277 277 277 278 281 281 282 284
278 278 277 276 276 277 281 281 276 273 273 272 271 271 272 273 274 276 276 275 272 266 266 267 271 272 272 273 274 273 273 272 270 277 275 275 277 276 277 278 281 283 284
277 277 276 276 275 276 281 282 279 274 273 272 271 271 272 272 272 273 276 278 278 279 279 275 272 273 273 274 274 273 273 273 273 276 275 272 277 276 278 279 282 283 284
277 276 276 275 275 275 282 282 280 274 273 272 272 272 272 272 272 272 272 272 273 273 274 274 274 274 275 276 276 276 275 272 272 273 274 269 273 273 275 277 281 283 284
276 276 275 274 274 274 282 283 280 273 273 272 273 273 272 272 274 276 273 270 271 273 277 279 280 280 280 280 279 273 267 266 266 268 272 270 270 271 274 275 277 282 283
275 275 274 274 274 273 282 283 279 273 271 271 272 273 274 273 275 277 273 268 267 272 274 269 273 274 273 272 274 272 268 265 265 265 272 269 269 270 269 273 275 278 279

GFSMA_sfc_thetae_006.txt.gz
Theta_e
291 290 289 288 287 287 287 287 287 287 287 287 287 287 287 287 288 288 289 298 303 307 311 314 315 315 317 318 318 318 320 320 320 321 321 322 322 322 323 325 327 328 329
290 289 288 287 286 286 286 286 286 286 286 286 286 286 287 287 287 288 289 290 301 305 308 311 312 312 314 314 315 318 319 322 320 319 318 319 322 323 324 325 328 328 330
290 289 288 286 286 286 286 285 285 285 284 285 284 285 286 287 287 288 289 289 290 299 305 310 311 312 312 315 315 313 316 314 314 317 314 314 317 320 322 324 323 324 326
289 288 287 286 286 285 285 284 283 283 283 283 283 284 284 286 287 288 287 288 289 290 296 303 305 308 310 312 312 314 311 316 316 313 311 311 314 313 314 316 320 319 322
289 288 287 285 285 284 284 284 283 282 282 282 283 283 284 285 286 287 285 287 287 288 288 294 296 298 302 305 307 309 312 312 310 309 311 313 312 311 312 314 315 316 316
289 288 286 285 285 284 283 282 282 282 282 282 283 283 283 284 284 284 285 287 286 287 286 286 287 289 298 300 302 305 307 308 308 308 309 309 309 311 313 314 315 314 313
288 287 286 284 284 283 283 282 282 282 281 281 281 282 282 284 284 284 284 284 285 285 285 286 286 287 289 296 300 303 306 306 307 307 307 308 309 309 309 310 311 312 312
287 287 286 284 284 282 282 282 282 281 281 280 280 279 279 280 282 284 283 284 282 284 284 285 285 286 287 287 293 300 303 305 305 305 305 305 305 306 307 308 309 310 311
286 286 286 285 284 283 282 281 281 282 280 280 280 281 278 278 278 281 282 282 281 282 282 283 284 285 286 286 290 294 298 299 300 301 301 302 303 304 305 307 307 308 309
286 286 285 284 284 283 281 281 281 280 281 279 281 282 280 280 277 277 279 280 281 281 281 282 283 284 285 286 291 293 293 295 295 296 297 298 300 301 303 304 305 306 307
285 285 284 283 283 282 281 282 280 280 280 280 280 279 279 278 278 277 276 278 279 280 281 281 282 283 285 286 287 288 291 291 292 292 293 295 296 298 300 301 302 303 304
283 283 283 283 283 282 281 281 281 280 280 280 279 279 279 277 277 277 276 276 276 278 279 280 281 282 284 284 285 287 288 289 290 290 291 292 293 295 296 298 299 300 302
283 283 283 282 281 282 281 281 281 280 280 279 279 278 279 279 279 279 277 276 276 278 279 279 280 282 283 282 282 284 284 286 287 289 289 290 291 292 293 295 296 298 299
285 283 282 282 281 281 281 281 280 280 279 279 278 278 279 279 279 279 278 277 275 276 278 277 280 280 280 280 280 282 279 282 285 287 287 288 289 290 291 293 294 295 296
284 282 282 281 280 280 280 280 280 279 279 279 278 278 278 278 279 279 279 279 276 273 274 276 277 280 279 278 279 278 278 280 283 284 285 286 288 289 290 291 292 294 295
282 281 281 281 280 280 280 280 279 279 278 278 278 278 278 278 278 278 279 278 277 274 272 275 277 277 277 277 278 277 277 280 280 282 284 285 287 288 289 290 291 292 293
281 281 281 281 280 280 280 280 279 278 278 277 278 278 277 278 277 276 276 275 275 275 272 273 275 275 275 274 275 276 276 276 277 281 283 285 287 287 287 288 289 290 291
281 281 281 280 280 280 280 280 279 278 278 277 277 277 276 276 274 274 274 273 273 274 272 270 272 272 273 273 274 274 275 277 277 280 283 285 285 285 286 287 287 288 288
281 281 281 280 280 280 279 280 279 278 278 278 277 276 275 274 272 272 272 271 271 273 271 270 270 272 272 273 273 275 275 276 278 280 282 282 283 284 284 285 286 286 286
281 281 281 280 280 280 280 279 279 278 278 277 277 276 274 274 273 271 271 271 271 270 270 270 270 270 271 274 274 274 274 276 275 277 279 280 281 282 283 284 284 283 284
282 281 280 280 280 280 279 279 279 278 277 276 275 275 274 274 276 274 271 270 270 268 268 268 269 270 272 273 273 274 273 274 275 277 277 277 278 278 279 281 281 282 283
280 280 280 279 278 279 283 284 280 278 277 275 274 274 273 274 277 278 277 276 272 266 262 264 271 271 273 273 274 273 273 272 271 277 275 274 275 275 276 278 281 283 284
280 279 279 279 278 279 284 285 284 278 277 275 274 273 272 273 274 275 278 277 277 277 274 272 272 273 273 273 274 273 274 274 273 274 272 270 273 272 275 276 280 281 282
278 278 279 278 279 278 284 286 284 277 276 275 274 274 273 272 273 274 275 275 275 275 275 275 274 274 274 275 275 276 275 271 271 272 273 268 272 271 273 274 279 280 281
278 279 279 278 278 278 283 286 283 276 276 274 274 274 274 273 275 277 273 271 272 273 276 278 279 280 280 279 278 271 264 262 264 268 271 269 270 271 272 272 274 279 279
278 278 277 278 278 277 282 286 283 275 274 273 273 274 276 274 277 278 272 270 268 271 273 271 273 274 274 272 274 272 266 259 264 262 272 269 269 269 268 271 273 273 273

GFSMA_sfc_thetae_009.txt.gz
Theta_e
301 301 300 297 297 295 295 294 294 294 294 293 293 293 293 294 294 295 297 303 307 311 315 316 315 318 319 319 319 321 324 324 322 320 321 322 323 326 323 328 328 329 330
300 299 296 294 294 294 293 294 293 293 293 293 292 292 292 293 293 295 296 300 305 308 312 314 314 315 315 317 318 318 318 316 318 316 316 319 319 320 321 323 323 324 326
297 297 295 293 293 293 293 292 291 291 291 291 291 291 292 293 293 294 295 296 301 308 310 312 312 315 316 315 315 316 314 317 315 313 312 316 315 315 316 318 320 321 321
296 295 294 293 292 291 292 291 291 290 290 291 290 290 291 292 293 292 293 294 295 295 299 302 307 309 309 310 310 310 318 314 312 312 314 314 312 313 314 316 316 317 317
295 295 294 292 291 291 290 290 289 290 289 289 289 290 291 292 291 291 291 292 292 292 292 297 300 302 304 305 310 311 310 310 310 311 310 311 312 314 315 316 315 315 314
294 294 293 292 291 290 289 289 289 288 289 289 287 288 290 290 290 291 290 290 291 291 292 292 294 296 301 305 307 308 309 310 309 309 310 310 310 310 310 311 312 314 315
294 294 293 291 290 290 289 289 288 288 287 288 288 288 289 289 289 290 290 289 289 290 290 291 292 293 296 302 305 308 309 309 308 306 306 306 307 307 308 309 310 311 312
294 293 292 290 289 289 288 288 288 287 287 287 289 288 286 287 288 289 289 288 288 289 289 289 290 291 293 297 302 302 303 304 304 303 303 303 304 305 306 307 307 308 309
292 293 292 291 289 289 288 287 288 289 287 286 286 290 285 287 286 287 287 288 287 288 288 288 289 290 292 296 295 294 297 298 299 299 300 300 301 302 304 305 305 306 307
292 292 291 290 289 289 288 287 287 288 288 286 286 285 286 287 286 284 285 286 287 286 287 287 288 289 292 291 291 292 292 293 294 295 296 297 298 300 301 302 303 304 305
291 290 290 289 288 288 288 287 286 286 287 287 287 285 284 284 284 285 284 284 285 286 286 287 288 290 290 288 289 289 290 291 291 292 293 294 295 297 299 300 301 302 303
288 288 288 288 288 288 287 286 287 287 286 286 286 286 285 284 283 284 283 283 283 284 285 286 287 289 287 286 286 285 286 288 289 290 291 292 293 294 296 297 299 300 301
287 287 287 287 287 287 286 286 286 286 285 285 286 285 285 285 285 284 283 282 282 283 284 286 286 287 285 285 284 284 283 285 287 289 289 290 291 292 293 295 296 297 298
288 288 287 287 287 286 285 285 286 286 285 286 285 284 284 284 285 284 284 283 280 281 282 282 286 285 284 284 282 282 282 282 286 287 288 289 290 291 292 293 295 295 296
288 288 286 285 285 285 284 284 284 284 284 285 284 284 284 283 284 284 284 284 285 280 279 281 282 283 283 282 281 281 280 280 283 284 286 287 288 290 291 291 292 293 294
286 285 285 285 285 284 284 284 284 283 283 283 283 283 283 283 283 283 283 283 282 283 281 280 281 282 281 280 280 280 279 280 280 282 284 286 287 289 289 290 290 291 292
285 284 284 284 283 283 283 283 283 282 282 282 282 282 281 282 282 281 282 282 281 280 280 277 279 279 278 278 278 279 279 280 281 281 283 285 286 286 287 288 288 289 290
284 284 284 283 283 283 283 282 282 282 282 281 281 280 280 280 280 280 280 280 279 279 278 277 276 277 277 277 277 277 278 279 280 281 283 285 285 285 286 286 287 287 288
284 284 283 283 282 282 282 282 283 282 282 282 281 280 280 279 279 279 278 278 277 277 277 276 275 275 276 277 277 278 278 279 279 281 282 282 283 284 285 285 286 286 285
284 284 283 283 283 282 282 282 282 282 281 281 281 281 280 279 278 278 277 276 276 276 275 274 273 273 274 276 276 276 277 278 278 279 280 281 281 282 283 284 284 283 284
284 283 283 283 283 282 282 281 282 282 281 281 280 280 279 279 281 279 277 275 275 274 274 273 272 273 274 274 275 277 275 277 278 279 279 280 279 279 279 280 280 281 283
282 283 282 282 282 281 285 286 283 281 281 280 278 279 279 278 280 281 280 279 276 273 271 272 273 272 274 275 276 275 275 275 275 280 277 276 277 277 278 279 280 282 283
282 281 282 282 281 282 286 287 286 281 280 280 279 278 276 277 278 279 281 280 279 279 276 274 274 275 275 276 276 275 275 275 275 277 274 273 277 276 278 278 280 281 282
281 280 281 281 281 282 285 287 286 282 281 280 279 278 277 276 277 277 278 277 277 277 276 276 277 277 277 277 277 277 276 274 273 273 274 271 275 275 277 277 279 281 281
279 280 281 281 280 281 284 286 286 283 280 279 278 278 277 276 278 280 277 276 275 275 279 280 280 279 279 280 280 275 272 270 269 271 273 272 273 273 274 275 277 279 280
279 279 279 279 280 280 283 284 286 283 279 278 277 276 278 277 280 281 276 276 274 275 276 277 278 279 280 277 277 275 272 268 268 267 273 271 271 272 269 274 276 276 276

GFSMA_sfc_thetae_012.txt.gz
Theta_e
314 313 314 314 313 311 307 302 302 301 300 299 299 299 299 299 300 301 304 305 309 312 315 316 317 319 320 319 322 325 323 320 321 319 319 322 322 323 324 324 325 327 327
312 310 311 311 309 306 302 302 301 300 300 299 298 298 298 299 300 301 303 306 307 310 312 313 315 316 318 320 319 318 317 321 317 314 318 317 317 318 320 321 322 322 320
310 308 308 308 305 302 301 300 299 299 298 297 297 297 298 298 299 299 300 304 309 309 312 312 314 317 317 315 318 315 319 317 313 313 316 314 314 315 317 317 318 318 318
309 306 306 304 302 300 299 299 298 297 297 297 296 297 297 298 297 298 299 301 303 302 303 306 309 310 311 311 310 319 315 312 313 314 312 312 314 316 317 317 316 315 316
307 305 304 303 300 298 298 298 297 297 296 296 296 296 297 298 296 296 297 297 296 297 299 301 302 303 305 310 313 312 312 311 311 310 311 313 312 311 312 313 314 315 315
305 304 302 302 299 298 297 297 296 296 297 296 292 294 296 296 296 296 295 294 295 295 296 297 300 301 304 307 309 310 311 310 310 310 308 308 308 309 310 311 311 312 313
305 303 302 300 298 297 297 297 296 294 294 295 295 293 293 294 295 294 295 294 294 294 294 296 297 300 303 305 308 310 310 308 306 305 305 305 306 307 307 308 309 310 311
304 302 302 300 298 297 297 296 295 294 295 294 295 295 291 291 293 293 293 292 292 293 293 293 295 296 300 304 302 303 304 303 303 303 303 302 303 304 305 306 306 307 308
304 302 301 300 298 298 296 296 296 296 294 293 295 297 292 293 292 292 292 291 291 292 293 293 293 295 300 298 296 296 296 297 298 299 300 301 301 302 303 304 305 305 306
302 301 301 299 299 297 297 297 296 297 298 293 292 291 293 296 293 288 291 291 291 290 291 292 293 294 297 293 293 291 292 293 294 295 296 297 298 300 301 302 303 303 304
301 300 299 298 298 297 297 296 295 295 296 297 295 291 291 291 292 294 289 288 290 290 290 291 292 294 294 292 291 289 289 291 291 292 293 294 295 297 299 300 301 302 302
298 298 298 298 297 296 296 295 295 295 295 295 296 294 293 291 290 291 291 289 288 288 289 290 292 293 292 291 287 285 286 287 289 290 290 291 292 294 295 297 299 300 300
295 296 296 296 296 296 295 295 294 294 294 294 295 294 294 294 293 293 293 289 287 287 287 290 291 293 290 289 288 284 283 285 287 288 289 289 290 291 293 295 296 297 297
296 296 295 295 295 295 294 294 293 293 293 293 293 294 293 293 292 292 292 289 285 285 286 287 289 290 290 288 285 282 285 282 285 286 287 288 289 290 292 293 293 294 295
295 296 294 293 294 294 293 293 291 291 291 291 292 293 292 292 291 292 292 293 292 285 284 286 286 290 288 287 285 285 284 282 284 284 285 286 288 290 290 291 292 292 293
293 293 293 292 293 293 292 291 291 291 290 290 290 290 290 290 290 290 290 290 291 292 288 288 287 288 287 285 284 283 283 281 283 283 284 286 287 288 288 289 290 291 292
291 291 291 291 291 291 291 290 290 290 288 289 288 288 288 289 288 288 288 288 287 289 289 283 286 287 286 284 281 282 283 283 284 282 283 285 287 286 287 287 288 289 290
291 290 290 289 289 289 289 289 288 288 287 287 287 286 286 285 287 287 287 286 286 286 287 281 281 282 281 282 282 281 281 281 283 282 283 285 286 285 285 286 287 288 288
288 289 289 288 288 288 287 287 288 287 286 287 287 285 285 284 284 285 285 285 285 282 284 284 279 281 280 281 279 280 281 282 282 282 283 283 284 284 285 286 286 286 286
288 287 288 288 287 287 286 287 286 286 286 286 287 285 284 283 284 284 283 284 284 283 282 281 281 278 278 279 280 280 279 281 281 281 282 282 283 283 284 284 284 284 283
286 287 286 286 287 286 285 286 285 285 285 285 285 284 284 284 285 285 283 283 283 282 281 280 278 278 277 276 277 280 279 280 282 282 282 283 282 282 282 283 282 283 283
284 285 284 284 285 284 287 288 286 284 284 283 284 284 283 283 284 286 287 286 283 281 280 280 278 277 277 278 279 278 278 277 279 282 281 280 281 280 281 282 283 282 283
283 282 283 284 284 285 287 288 287 285 284 284 283 283 282 282 282 282 285 285 284 284 284 281 279 278 278 279 280 278 278 278 278 280 279 276 280 279 281 280 282 282 283
281 281 282 283 283 284 286 287 287 285 284 284 283 283 282 281 281 281 281 281 281 281 281 280 281 280 281 281 280 280 279 279 279 278 277 273 279 278 280 280 282 282 282
280 280 281 282 283 283 285 286 286 285 284 284 283 283 283 282 282 284 281 280 279 279 282 281 281 282 282 282 281 280 277 275 274 274 276 275 276 276 277 278 280 281 281
278 280 280 281 282 282 284 285 285 285 284 284 284 282 283 282 283 284 281 280 278 278 277 277 278 281 281 280 281 280 278 274 274 272 275 273 275 274 273 277 278 278 278

GFSMA_sfc_thetae_015.txt.gz
Theta_e
321 319 318 319 320 317 314 311 306 305 305 302 302 301 301 301 301 302 306 308 311 315 315 316 317 319 320 320 323 325 322 321 320 320 321 321 323 324 324 324 326 324 324
320 317 316 317 317 315 311 307 305 304 303 303 300 300 300 300 301 302 304 306 310 313 313 313 315 316 318 320 322 319 322 318 315 318 318 317 318 319 320 321 320 320 320
319 316 314 314 314 312 308 305 304 304 302 301 300 299 299 300 300 300 303 306 309 309 313 314 314 317 318 316 316 317 320 314 313 317 315 314 316 317 318 319 318 317 317
318 314 312 312 312 307 304 303 302 301 301 299 299 299 299 300 299 300 301 305 306 306 307 308 311 312 313 313 312 319 315 313 316 313 313 315 317 317 316 315 316 317 318
317 312 310 310 309 304 302 301 300 300 300 299 299 299 299 300 299 298 299 300 298 301 303 301 303 305 306 313 315 314 313 312 311 312 313 311 312 312 313 313 313 314 315
315 311 309 308 305 302 301 301 300 300 300 299 294 296 298 299 299 298 297 296 297 298 299 300 302 303 306 307 311 312 312 312 310 308 309 309 309 310 311 311 311 311 312
314 311 307 306 303 301 300 300 300 299 299 298 296 296 295 296 296 297 297 296 295 296 297 298 300 303 305 307 309 311 311 308 307 305 306 306 307 307 308 308 309 309 310
313 309 306 304 302 300 300 299 299 297 298 297 297 296 291 291 294 295 295 294 294 295 294 295 297 299 304 303 304 306 306 304 304 303 302 303 304 305 306 306 307 307 308
312 309 306 304 302 300 299 299 298 297 295 296 299 299 295 294 291 294 293 293 293 293 294 294 295 297 302 298 298 297 297 299 299 299 300 300 302 303 304 304 305 306 306
310 308 306 304 302 300 299 299 298 298 298 293 295 296 297 298 293 287 292 292 292 291 293 294 294 295 299 296 292 292 293 293 294 295 296 297 299 300 301 302 303 304 304
306 307 305 303 301 300 299 298 297 297 298 296 293 294 293 294 296 295 288 288 291 291 292 292 293 295 295 294 292 289 291 291 292 292 293 294 295 297 299 300 301 302 303
304 304 303 302 301 300 298 298 297 296 296 297 295 295 293 292 290 293 292 289 287 289 290 291 292 294 294 292 288 287 288 289 290 290 290 291 292 294 296 298 299 300 300
300 300 301 300 299 299 298 298 297 295 296 295 296 295 295 295 295 294 294 290 288 288 288 290 291 294 292 291 287 287 286 287 288 289 289 289 291 292 293 294 296 296 297
299 301 299 299 298 298 297 297 296 295 295 295 295 295 294 294 294 294 293 289 287 286 287 287 290 292 291 290 288 285 285 285 287 288 288 288 289 290 291 292 293 294 295
295 296 298 297 296 297 296 295 294 293 293 294 293 294 293 293 293 293 293 292 289 284 283 287 286 291 291 289 286 284 285 285 285 287 287 288 289 290 291 291 291 292 293
293 293 294 295 294 294 294 294 293 292 292 292 292 292 292 292 291 292 292 292 292 290 286 287 287 289 289 287 286 284 284 284 284 286 286 287 288 289 289 290 290 291 292
291 291 291 291 292 292 293 292 291 291 290 290 290 290 290 290 290 290 289 289 289 290 291 284 287 289 287 285 283 283 284 282 283 285 286 286 288 288 288 288 289 289 290
290 290 290 290 290 290 291 291 289 289 289 289 289 288 288 287 288 288 288 287 287 287 288 282 284 285 285 285 282 280 281 282 283 286 286 286 288 288 287 287 288 288 288
287 288 288 288 288 289 289 289 289 288 288 289 288 288 287 287 286 287 287 286 286 283 286 283 281 283 283 283 282 281 281 281 281 284 286 286 287 287 287 287 287 287 287
285 285 286 287 287 287 287 287 287 287 287 288 288 288 287 286 286 286 285 285 285 284 284 284 280 280 279 280 280 278 278 280 280 281 283 283 285 285 286 286 286 285 285
284 285 284 285 285 286 285 286 286 285 285 286 287 286 287 286 287 287 286 286 285 284 283 282 280 278 278 277 277 279 279 280 281 282 280 281 281 282 283 285 284 284 284
283 283 283 283 283 284 287 288 287 285 285 284 284 286 285 285 286 288 289 290 287 285 283 282 281 279 278 278 278 278 279 279 277 283 281 280 281 280 281 281 284 284 284
281 280 281 282 282 283 286 287 288 285 285 284 284 284 284 284 284 284 288 289 289 290 289 284 282 281 279 279 279 279 279 279 280 280 281 278 279 278 280 280 284 284 284
278 279 279 280 281 282 285 286 287 286 285 285 285 284 283 284 284 283 283 284 285 285 286 285 284 283 282 281 281 281 280 281 279 278 279 275 279 278 280 280 283 283 284
276 276 278 278 278 280 283 284 284 284 284 284 285 285 284 284 286 287 282 282 283 283 286 288 286 286 285 285 283 281 278 277 276 276 277 276 277 277 278 277 279 282 283
275 275 275 276 276 276 280 283 283 283 283 283 284 284 285 285 286 287 283 282 281 282 281 282 281 283 284 284 285 281 280 276 275 274 277 274 275 275 273 278 278 280 279

GFSMA_sfc_thetae_021.txt.gz
Theta_e
322 312 311 311 310 308 306 304 302 297 296 295 295 294 294 293 293 298 298 311 315 316 317 319 319 321 321 322 323 325 323 320 321 320 322 323 323 323 326 323 323 324 324
321 314 310 310 310 308 305 303 299 296 295 294 294 294 294 293 294 296 299 305 315 317 315 316 319 321 320 325 326 325 322 317 318 318 316 318 320 321 322 319 318 319 321
317 312 309 309 310 307 304 299 296 295 293 294 292 293 293 293 293 294 298 301 305 313 316 317 316 318 323 322 321 322 320 314 318 314 314 318 318 320 318 316 317 318 319
316 310 307 307 307 305 302 297 295 293 292 291 290 291 291 293 293 294 295 299 300 302 307 311 315 320 319 321 318 321 319 319 316 313 317 316 316 316 315 315 315 315 316
314 312 307 306 305 301 298 296 292 292 290 290 290 289 290 291 292 294 293 293 293 297 298 303 305 308 311 315 321 321 319 315 314 314 313 312 312 312 312 313 312 313 314
313 310 305 305 303 299 295 293 292 291 290 290 292 290 289 290 290 290 291 292 291 292 294 295 294 298 308 310 319 319 316 314 313 311 310 310 310 310 310 311 311 311 312
314 308 304 303 300 299 296 293 291 291 289 288 288 287 287 288 289 289 289 289 290 291 290 291 292 295 298 310 315 317 317 315 311 309 308 308 308 307 308 308 309 310 310
313 309 304 301 298 295 293 292 292 289 290 289 287 285 283 285 287 289 288 288 288 289 289 291 291 293 297 298 303 315 316 314 310 309 307 306 306 306 307 307 308 308 309
310 308 305 301 299 298 294 293 291 291 289 288 289 288 283 283 283 286 287 287 287 287 287 288 290 292 296 296 301 306 313 311 309 307 306 305 305 306 306 306 306 307 307
304 306 305 302 299 297 295 292 293 291 289 287 287 290 288 287 283 282 285 285 286 286 286 287 288 290 294 293 296 298 305 306 305 304 304 303 304 304 305 305 305 305 306
299 300 300 302 299 297 295 294 293 290 289 289 288 286 286 286 286 283 280 282 284 285 286 286 287 288 292 290 290 295 301 302 301 300 300 301 302 303 304 304 304 304 304
293 293 295 296 298 298 295 294 294 293 292 289 288 287 287 286 284 284 281 280 281 282 284 286 287 288 289 288 291 295 298 299 299 298 298 298 299 300 302 302 302 302 302
289 289 289 290 292 294 293 292 290 289 290 291 290 290 290 288 286 286 284 281 281 282 282 284 287 287 290 288 288 292 296 297 298 297 297 297 298 298 299 300 300 299 300
287 288 288 288 289 290 291 291 289 288 288 289 290 290 290 290 287 286 286 282 280 280 280 281 284 287 289 288 288 292 289 295 296 297 296 296 297 297 297 298 297 297 297
286 286 286 286 287 287 287 288 287 286 286 286 288 288 289 289 287 287 286 284 284 280 280 280 281 286 288 287 287 288 284 292 294 296 296 296 296 296 296 297 296 296 296
283 283 284 285 285 285 285 285 285 285 285 285 286 285 287 287 287 287 288 285 284 288 284 283 282 283 288 288 287 286 283 288 291 294 294 295 295 295 296 296 295 296 296
282 282 283 282 282 283 284 284 284 284 284 285 285 284 285 285 287 288 284 285 286 283 287 284 281 282 285 286 284 284 283 283 285 291 293 294 294 294 295 295 294 294 295
280 281 282 281 282 282 282 282 283 283 284 284 285 284 285 286 284 286 287 286 286 284 286 286 280 281 283 286 284 283 282 282 282 288 292 293 293 293 293 294 293 293 293
280 280 280 280 280 281 281 281 281 282 283 284 285 285 285 285 284 285 284 286 287 286 284 284 281 280 281 284 280 281 281 280 281 285 290 291 292 292 292 293 292 292 291
279 279 279 279 280 280 281 281 281 282 282 283 283 284 285 285 285 285 285 285 286 286 284 283 279 279 279 280 283 280 278 279 279 281 285 287 289 291 292 293 292 291 290
279 278 278 279 279 279 280 279 280 281 281 282 283 283 284 285 286 287 285 285 285 285 285 284 283 277 277 279 280 280 280 280 279 280 279 281 284 285 287 291 290 290 290
278 278 277 277 276 278 281 282 282 280 281 281 281 283 283 283 285 288 289 290 288 285 284 285 284 282 281 282 282 280 280 277 275 279 278 278 282 281 283 284 289 290 290
276 275 276 276 276 276 280 281 281 279 279 279 280 281 282 283 283 284 286 289 289 290 291 286 285 285 283 283 282 281 280 280 280 278 280 278 279 279 280 282 288 289 289
272 273 273 274 274 275 279 279 280 277 277 277 278 279 280 281 282 283 283 283 284 285 287 287 287 286 287 284 283 284 282 282 280 279 281 277 278 277 280 280 287 288 289
268 268 270 270 270 271 275 276 276 275 275 275 276 276 277 278 282 284 282 281 282 283 287 289 290 291 291 291 285 283 281 279 277 277 279 278 278 279 279 279 281 288 288
266 266 266 266 266 266 270 272 273 271 270 272 273 275 277 277 280 282 281 281 280 281 282 283 285 288 289 289 289 283 283 279 280 276 279 277 277 276 275 278 279 282 284

GFSMA_sfc_thetae_024.txt.gz
Theta_e
323 320 317 313 311 309 307 304 303 300 296 294 294 293 292 292 293 296 297 310 315 317 319 320 321 321 322 323 324 324 323 320 321 320 321 324 323 325 324 325 325 325 326
324 318 315 313 309 308 305 304 302 297 294 293 293 293 292 292 293 296 297 303 315 317 318 319 321 323 321 324 325 325 322 319 320 317 317 319 322 323 321 320 318 320 322
318 315 314 312 311 307 305 302 299 295 293 292 291 292 292 292 292 295 297 301 305 313 317 316 319 321 321 326 328 324 321 317 318 315 315 318 317 320 319 315 317 317 318
320 314 313 313 312 307 304 300 296 293 292 290 289 290 290 291 292 292 294 299 301 303 308 312 314 319 322 325 322 322 320 317 319 313 316 319 319 318 317 316 316 315 316
319 317 313 312 310 308 302 300 293 293 291 289 289 288 289 290 290 293 292 296 296 298 299 304 305 307 312 319 321 322 321 317 315 314 315 313 313 313 313 313 313 313 314
315 313 311 310 308 305 300 295 294 291 290 290 291 289 288 289 289 289 290 292 291 293 295 296 295 298 307 312 320 321 322 317 315 314 312 312 312 312 311 312 312 312 313
313 311 310 308 305 303 302 298 292 291 289 288 287 286 286 287 288 288 289 289 289 290 290 292 292 295 298 310 316 321 321 317 316 313 311 311 311 311 311 311 310 311 311
313 310 307 305 303 300 298 295 294 289 289 288 286 284 283 285 287 288 288 288 287 288 289 290 290 292 295 298 303 317 319 319 316 313 311 310 309 310 310 310 310 310 311
305 307 307 303 301 300 298 296 294 293 290 288 287 287 281 282 282 285 286 287 287 286 287 288 289 290 293 296 302 308 318 317 316 313 311 309 309 309 309 309 309 309 310
294 296 299 303 301 298 298 296 295 294 292 290 287 289 287 285 282 282 284 285 286 286 286 286 287 288 292 294 298 301 308 316 314 311 309 308 308 308 309 309 308 308 309
291 290 291 292 296 299 297 295 294 292 292 291 289 286 285 285 284 283 282 282 283 285 286 287 287 287 289 293 292 296 307 310 309 308 306 306 306 307 308 308 308 308 308
289 288 289 289 290 291 293 295 294 293 293 292 291 289 288 285 284 284 281 281 281 283 284 285 286 287 288 291 293 296 303 307 306 304 304 303 303 305 307 307 308 307 307
285 285 286 286 287 288 289 290 291 292 292 292 292 292 291 290 288 286 284 281 281 282 282 283 286 286 288 289 290 294 299 304 304 303 301 301 301 303 304 306 306 306 305
283 284 284 285 285 286 286 287 287 287 287 289 289 290 291 292 289 290 288 284 282 280 281 281 283 286 287 288 290 293 292 300 302 302 301 299 300 301 302 303 304 303 303
283 282 282 282 283 283 284 284 284 284 284 284 285 286 287 289 288 289 289 289 287 284 286 281 281 284 287 287 289 290 289 295 299 300 299 299 299 299 300 301 302 302 302
280 280 281 281 282 281 281 281 282 283 283 283 285 284 284 285 286 287 289 289 287 287 284 284 282 283 286 287 288 288 288 290 296 298 298 298 298 298 299 299 300 300 300
279 280 280 280 280 280 280 280 280 280 281 282 282 283 283 284 284 285 283 286 288 287 285 288 282 282 282 285 285 287 286 286 288 295 297 297 297 297 297 298 299 299 299
281 279 279 279 279 279 280 279 279 279 279 280 281 282 282 285 282 283 283 283 283 285 286 285 287 280 282 284 286 284 284 285 284 290 294 296 296 296 296 297 297 297 297
279 279 279 278 278 278 278 279 279 279 280 280 281 281 281 282 282 284 284 284 284 285 284 284 285 280 281 282 281 282 283 283 282 286 292 294 295 295 295 296 296 296 296
277 278 278 278 278 278 278 278 278 278 279 280 281 281 282 281 282 282 284 285 285 284 284 283 284 284 280 281 283 282 280 281 281 282 286 289 292 294 295 295 295 294 294
277 277 277 277 277 277 278 277 278 278 278 278 279 280 281 282 284 285 283 284 285 285 284 283 283 283 280 278 281 282 282 281 281 282 281 283 285 287 289 293 292 293 293
274 274 274 274 274 276 279 280 280 278 278 277 277 278 279 280 282 285 286 287 287 284 284 284 284 283 283 281 283 283 281 280 279 282 280 280 282 283 285 288 292 293 293
271 271 271 271 271 272 276 277 278 276 276 276 276 277 277 278 280 280 283 285 285 287 290 286 284 284 284 285 283 282 281 282 282 280 281 279 281 281 284 285 291 293 293
268 268 268 268 268 269 273 274 274 272 272 272 273 275 276 276 277 277 278 278 280 282 283 285 286 287 287 287 284 284 284 283 284 280 281 279 281 279 282 283 289 291 293
265 265 266 265 265 265 270 271 272 270 270 270 271 272 272 273 276 278 276 275 276 278 284 287 288 289 291 291 290 285 282 281 280 281 279 279 278 279 279 280 282 289 292
264 265 264 264 264 263 267 270 271 268 267 268 270 271 273 273 276 277 275 274 273 275 278 280 282 284 288 288 290 288 284 281 281 280 280 278 278 278 276 279 280 282 287

GFSMA_sfc_thetae_027.txt.gz
Theta_e
324 322 320 319 318 314 310 306 305 303 298 294 293 292 291 291 292 295 295 307 313 318 319 322 321 322 322 323 324 324 323 320 320 319 321 324 322 325 325 325 325 326 328
320 320 318 317 315 313 310 306 304 301 297 293 292 292 291 291 291 294 295 299 313 317 320 321 322 322 324 323 324 325 323 320 319 317 317 320 322 322 321 321 320 321 323
321 319 318 315 315 312 309 305 301 298 294 292 291 291 291 291 291 292 296 298 303 311 317 319 320 323 324 324 326 328 323 320 318 316 315 319 319 319 318 316 316 317 320
322 318 316 314 314 311 309 305 300 297 294 291 289 289 289 290 291 291 293 296 300 302 307 313 315 318 322 324 327 327 323 318 318 315 315 318 319 318 315 316 316 316 316
321 319 315 314 312 310 308 306 299 298 293 290 290 288 288 288 289 291 290 292 297 299 299 304 308 307 312 320 326 324 323 321 317 314 316 315 314 314 314 314 314 314 315
316 316 314 312 310 309 304 302 300 295 294 291 291 289 287 288 288 288 289 291 293 293 295 296 297 297 306 314 320 323 323 322 318 315 315 314 314 314 314 314 312 313 314
311 311 311 310 308 308 305 302 297 295 293 291 288 287 287 287 287 288 288 288 289 290 290 293 293 294 297 308 315 320 322 323 319 316 315 313 313 313 313 312 312 312 312
298 303 305 305 304 303 301 299 296 294 293 291 290 285 285 286 286 287 287 288 287 288 288 289 289 291 293 295 301 313 322 322 320 317 315 313 313 313 312 312 312 312 312
292 294 295 300 301 301 300 298 296 295 294 291 290 291 286 282 282 285 285 286 286 286 286 287 288 289 290 293 299 305 313 319 320 318 316 313 312 311 312 312 312 312 312
289 290 291 292 293 297 297 297 297 294 293 292 290 290 289 288 285 284 284 284 285 286 285 286 287 287 288 290 296 300 304 310 316 319 315 313 311 311 311 311 311 311 311
286 286 287 288 288 289 290 293 294 294 293 292 291 290 288 288 286 285 285 283 284 285 286 286 286 286 287 288 291 295 302 307 312 314 314 311 310 310 310 310 311 311 311
284 284 285 285 286 286 287 288 289 291 292 292 292 290 289 288 287 286 285 285 284 284 284 284 285 287 287 287 292 296 300 305 312 311 311 309 308 308 309 309 310 310 310
281 282 283 283 283 284 284 285 285 286 287 288 290 291 292 290 289 288 287 288 285 283 282 282 285 286 287 287 289 294 297 303 309 309 308 307 306 306 306 308 309 309 309
280 281 281 281 281 282 282 282 282 282 283 283 284 285 288 290 291 289 288 286 286 288 284 283 282 284 286 286 289 293 292 299 305 308 306 305 305 305 304 305 307 308 308
281 280 279 279 280 280 280 280 280 279 280 281 282 283 283 285 286 288 290 288 287 284 285 288 282 283 285 286 288 289 290 294 300 305 306 305 304 303 303 304 305 306 307
278 279 278 278 279 279 280 280 279 279 279 279 280 281 281 282 284 284 285 287 287 286 284 285 287 283 284 286 287 288 288 292 296 301 303 303 302 301 301 302 303 304 305
278 279 279 279 278 278 278 278 278 278 278 278 279 278 280 281 282 282 282 283 284 285 283 286 287 284 282 283 284 286 287 288 289 296 300 301 301 301 300 300 301 302 303
278 278 279 278 278 278 278 277 277 277 277 277 278 279 279 281 279 280 281 281 282 284 283 282 285 285 282 283 283 283 285 287 286 291 297 299 300 300 300 300 300 301 301
277 277 278 277 277 277 277 277 277 277 277 277 278 278 278 279 279 280 280 281 281 283 284 283 283 284 282 281 282 283 283 284 285 288 293 297 298 299 299 299 299 299 299
276 275 275 275 275 276 276 276 276 276 277 277 278 278 278 278 278 279 280 280 281 281 282 282 282 282 283 282 281 281 280 282 282 283 287 290 294 295 298 298 297 296 297
274 273 273 273 273 274 275 275 275 275 276 276 277 278 278 278 281 281 280 280 280 280 281 281 281 281 282 278 280 282 282 283 282 284 282 283 286 289 291 296 294 294 296
271 271 271 270 270 272 274 276 275 274 274 274 274 275 276 277 278 280 281 282 282 280 280 280 280 280 281 282 282 282 281 281 279 282 282 281 284 285 288 290 294 295 296
269 268 268 268 268 268 272 274 274 272 271 271 271 272 273 274 275 276 278 280 280 282 283 281 280 281 281 283 283 282 282 283 282 281 282 281 282 282 286 287 292 294 295
266 266 266 266 266 267 271 272 273 271 270 270 270 270 271 271 272 273 273 273 274 275 276 278 279 280 282 284 285 285 284 284 284 285 282 280 282 280 283 285 290 293 294
264 264 265 264 263 264 269 271 271 269 269 268 269 270 270 270 273 275 273 271 272 273 277 279 280 282 284 286 287 285 283 282 281 281 280 281 282 281 281 282 284 291 293
264 264 264 263 263 262 267 269 270 268 267 268 269 270 272 272 274 275 273 271 269 271 273 273 275 277 279 280 284 285 284 282 281 281 283 280 280 278 276 280 282 283 287

GFSMA_sfc_thetae_030.txt.gz
Theta_e
325 323 323 321 320 318 316 313 309 304 302 297 293 292 291 290 290 292 294 302 311 316 321 322 323 322 323 323 324 324 323 321 320 319 320 324 324 324 325 326 326 327 328
323 322 319 318 317 316 315 312 309 304 301 295 293 292 291 290 290 291 294 295 306 315 318 323 323 323 323 324 324 324 324 321 319 317 317 320 322 323 322 321 321 322 323
322 321 320 318 318 315 313 309 306 304 300 294 292 291 290 290 290 290 292 295 298 307 313 320 321 323 324 325 325 325 326 322 318 317 315 317 319 320 319 318 317 318 320
323 321 319 317 316 313 312 309 305 301 300 297 292 290 289 289 290 290 290 293 296 299 305 312 315 318 320 325 325 328 327 323 318 318 314 317 319 318 317 314 316 317 316
315 318 317 315 314 313 309 307 303 302 301 298 295 292 289 288 289 290 289 290 292 297 298 303 308 308 312 318 323 327 326 323 321 318 315 317 316 315 315 314 314 315 316
307 310 310 310 310 309 306 304 302 298 296 296 294 292 289 288 288 288 288 290 290 292 293 295 296 298 305 313 318 324 326 324 322 319 316 316 316 316 315 315 314 313 315
298 300 304 304 305 304 303 303 299 298 298 293 293 293 291 290 288 288 288 288 288 289 290 290 292 293 295 306 312 318 324 324 323 320 317 316 315 315 314 314 313 313 313
292 294 296 298 299 300 300 299 297 296 295 293 292 289 290 289 287 287 286 287 287 287 288 289 288 289 290 292 297 310 316 322 324 323 319 316 315 314 314 314 314 314 314
288 289 290 291 293 295 295 296 296 296 294 294 291 291 289 287 286 286 286 286 286 286 287 287 288 288 289 289 294 299 307 313 320 323 322 318 316 314 314 313 313 314 313
285 285 286 287 288 288 288 290 294 294 293 291 292 291 289 288 287 286 286 287 285 286 286 286 286 287 288 288 292 296 300 305 309 314 318 320 317 315 313 313 313 313 313
283 284 284 284 284 285 285 286 287 288 291 290 291 290 289 288 288 286 285 286 287 286 286 286 286 286 287 287 287 291 298 302 305 309 312 317 317 315 313 312 312 312 312
281 281 282 282 282 282 282 283 283 284 285 287 288 288 289 288 288 287 286 288 288 288 285 285 285 286 286 286 289 294 297 300 303 306 310 314 315 313 312 312 312 312 312
279 279 280 280 280 280 281 281 281 281 281 282 283 285 287 288 289 288 287 287 287 288 285 284 285 285 287 285 286 291 294 298 301 304 309 312 313 312 311 310 310 310 311
278 278 278 278 278 279 279 279 279 279 279 279 279 280 283 285 286 287 286 284 283 286 286 286 283 284 285 285 287 291 290 295 298 301 307 311 311 311 309 309 309 308 309
279 278 278 277 278 278 278 278 277 277 277 278 278 279 280 281 283 284 285 284 283 282 283 286 284 285 284 285 286 286 287 291 296 299 304 309 309 308 308 308 308 308 308
278 278 278 277 277 277 277 277 276 277 276 277 278 277 278 279 280 281 282 282 283 283 281 284 286 285 286 286 286 286 286 290 293 295 300 304 307 306 306 306 306 306 306
277 278 278 277 277 277 276 276 275 276 276 276 276 277 277 278 278 279 280 281 281 281 280 282 285 285 285 286 286 285 286 286 287 293 295 300 303 305 305 305 304 304 304
277 277 277 277 276 276 276 275 275 275 275 275 276 276 276 279 277 278 278 278 279 280 279 278 281 282 282 283 285 284 285 286 285 290 293 296 299 302 303 303 303 303 303
276 275 275 274 274 274 274 275 275 275 276 276 276 276 276 276 276 277 277 277 278 280 280 279 279 282 282 281 282 282 283 284 285 288 292 293 295 299 301 302 301 300 300
273 273 273 273 273 273 273 274 274 274 274 274 275 275 276 276 276 276 276 277 278 278 279 278 279 280 281 282 279 280 281 281 283 284 287 289 291 294 298 300 299 298 298
272 272 271 271 271 271 273 273 273 273 273 273 273 273 274 275 277 278 277 277 277 276 277 277 278 279 279 279 280 281 280 281 282 283 283 283 285 287 290 296 296 296 297
270 270 269 269 268 270 273 275 275 273 272 271 270 271 272 272 274 276 277 278 279 277 275 276 278 278 279 280 281 281 281 281 279 281 282 283 283 283 286 289 294 297 297
268 267 267 267 267 267 272 274 274 272 271 270 270 270 270 271 271 271 273 275 275 277 279 277 275 276 276 279 280 280 281 281 281 283 281 280 281 281 284 286 292 295 296
266 265 265 265 266 267 271 272 273 271 270 269 269 269 269 270 270 271 271 271 272 273 274 274 274 274 275 276 276 278 279 280 282 284 281 279 280 281 282 283 290 293 295
264 263 265 263 263 263 269 271 271 270 269 269 269 270 270 269 272 274 272 271 272 273 276 277 278 279 280 280 281 278 276 277 277 280 284 281 282 281 280 282 283 290 293
264 264 264 263 262 262 267 270 271 269 267 268 269 270 272 272 275 276 273 271 270 271 272 271 272 274 276 275 278 277 276 273 275 277 283 280 281 277 274 279 282 283 286

GFSMA_sfc_thetae_033.txt.gz
Theta_e
331 327 327 326 328 325 322 318 315 311 313 308 303 300 299 299 298 299 301 302 307 314 318 322 324 323 323 323 323 324 324 322 320 319 319 321 324 324 322 323 326 326 328
326 325 323 323 321 320 321 320 315 314 313 307 304 300 299 299 298 298 299 301 304 309 315 320 323 324 324 324 324 324 324 323 320 318 317 318 321 322 322 321 321 321 321
323 323 323 322 321 319 316 313 311 309 307 305 303 301 299 298 298 298 298 299 302 304 308 316 320 323 325 327 325 325 326 326 321 318 316 317 319 319 319 318 318 319 320
318 318 316 315 316 315 313 311 308 306 305 303 301 301 299 298 297 297 297 298 299 301 304 307 313 316 318 322 326 326 329 327 322 318 316 317 318 319 318 316 315 317 317
312 312 311 311 313 311 308 307 305 303 303 302 300 299 298 298 298 296 297 297 298 299 302 304 306 307 310 315 320 323 328 328 323 320 317 316 318 317 316 316 315 315 316
303 306 306 306 308 307 306 305 304 301 299 297 297 297 297 297 296 297 297 296 296 296 298 299 302 303 303 309 314 320 324 329 324 323 320 317 316 317 317 316 316 315 314
296 298 301 301 304 302 302 302 302 301 300 297 296 298 297 296 295 296 296 295 296 296 296 297 298 299 300 302 306 311 318 322 326 323 322 319 317 316 316 316 316 315 315
291 292 293 294 295 296 297 298 299 300 300 297 296 294 294 299 295 295 295 294 295 294 295 296 296 296 297 298 299 304 309 316 320 323 325 321 318 317 315 316 316 316 316
287 289 288 289 290 291 291 292 295 295 295 297 296 296 295 292 292 299 296 294 294 294 295 294 294 294 295 296 298 299 302 305 311 316 319 323 320 318 317 316 315 315 315
285 286 286 286 287 287 286 288 289 291 294 292 296 295 294 292 290 290 294 297 295 294 295 296 295 295 295 295 296 297 298 301 304 307 312 316 320 320 318 316 315 315 315
284 284 284 284 284 285 285 285 285 285 287 287 289 291 292 293 292 288 288 291 295 296 296 295 295 294 295 294 295 295 296 299 301 303 306 309 313 317 320 317 316 314 314
282 282 283 283 283 283 283 283 283 284 284 284 285 286 287 288 288 288 288 289 289 293 294 295 294 294 295 294 293 293 295 298 300 302 304 306 308 312 318 318 316 314 314
281 281 281 281 282 282 282 282 282 282 282 282 282 282 284 284 286 286 286 285 286 288 291 293 294 294 292 294 293 292 293 295 298 300 302 304 306 309 316 317 316 314 313
281 281 281 281 281 281 281 281 281 281 281 281 280 281 282 282 284 284 283 283 281 283 286 289 292 293 293 293 292 292 293 293 296 298 300 302 304 308 314 316 315 314 312
281 280 280 279 280 280 280 279 279 279 280 280 280 280 280 281 282 282 283 283 282 279 281 286 288 291 292 293 294 294 293 292 294 297 298 300 302 306 312 313 313 312 312
280 279 279 279 279 279 279 278 278 278 278 279 279 279 279 280 280 281 282 282 282 280 278 284 285 288 289 290 291 292 292 291 293 294 296 298 300 304 309 310 310 310 310
279 278 278 278 278 277 277 277 277 277 277 277 278 278 278 279 279 280 280 280 280 280 279 281 284 285 285 286 288 290 290 290 291 292 294 295 297 301 304 307 307 308 308
278 277 276 276 276 276 276 275 275 276 276 276 276 277 277 278 277 278 279 278 279 280 279 277 280 282 283 285 286 286 287 288 289 290 293 294 296 297 299 303 305 305 306
276 275 275 274 274 274 274 274 275 275 275 275 275 275 275 275 275 277 277 277 278 278 279 278 277 281 282 284 284 285 286 287 287 289 291 293 294 295 297 299 301 303 302
274 273 273 273 273 273 273 274 274 274 274 275 274 274 274 273 273 274 275 275 277 277 278 277 277 278 279 282 283 282 282 285 285 286 288 289 290 292 294 296 298 298 300
272 272 272 271 271 271 273 274 274 274 273 273 273 273 273 274 275 275 275 275 275 275 275 276 276 277 277 277 279 282 282 284 285 286 286 287 287 289 291 292 293 295 298
270 270 270 269 269 270 273 275 275 273 273 272 271 272 272 272 273 274 275 276 275 273 272 273 274 274 275 277 279 279 279 278 278 286 285 285 287 286 288 289 291 294 296
269 268 268 268 267 268 272 275 275 273 272 271 270 270 270 271 271 271 272 274 274 275 276 274 273 273 273 274 275 275 275 276 276 280 281 281 286 284 287 287 290 291 294
267 266 266 266 267 267 272 273 274 272 271 270 270 270 270 270 271 272 272 272 273 274 274 275 275 275 275 276 276 276 276 276 277 279 280 276 282 283 287 287 289 290 292
265 264 266 265 264 264 269 272 272 271 270 269 270 271 271 271 272 275 274 273 273 274 276 278 278 279 279 279 279 277 274 273 272 275 279 279 281 282 284 286 287 289 290
265 265 264 264 263 263 267 271 272 271 269 270 271 271 273 274 276 277 274 273 271 272 274 274 274 276 277 277 278 277 275 272 272 271 276 275 277 278 280 285 285 286 287

GFSMA_sfc_thetae_036.txt.gz
Theta_e
336 338 336 331 331 331 331 329 322 317 320 320 316 311 308 306 305 305 306 305 305 310 315 320 324 327 324 324 324 324 324 323 320 319 319 320 323 325 323 324 325 326 327
328 328 327 327 328 326 326 321 318 316 313 311 316 311 309 308 306 305 305 306 303 307 310 315 322 326 328 326 326 325 326 325 322 319 317 319 320 322 322 322 321 321 322
325 324 321 320 319 318 317 317 312 312 312 310 308 306 305 309 308 306 305 305 305 307 306 311 315 319 322 325 328 328 326 327 325 321 318 318 318 319 320 320 319 319 320
317 316 314 314 315 315 314 313 312 311 309 306 308 309 306 306 308 307 306 305 305 304 307 306 309 313 316 319 321 324 326 330 327 322 319 316 317 319 318 318 317 317 317
311 311 312 312 313 311 310 310 309 309 309 308 308 310 307 302 305 307 307 306 304 303 304 305 303 305 308 312 317 319 322 327 328 325 321 318 317 318 317 317 317 316 317
307 309 309 310 311 310 308 310 309 309 307 305 303 302 304 304 302 303 306 304 303 302 302 302 304 304 303 307 310 314 318 322 326 327 323 321 319 317 318 318 318 317 317
301 302 302 302 304 303 304 305 308 307 306 305 307 309 309 306 303 302 305 304 303 301 302 302 303 303 303 303 305 308 311 314 321 324 325 323 321 319 318 317 317 316 317
294 294 296 296 298 298 298 300 301 303 303 303 300 304 303 306 304 306 306 303 302 303 303 301 301 301 302 302 303 305 307 309 311 316 322 323 324 321 319 317 316 317 317
291 292 292 292 292 292 291 292 295 297 298 300 301 299 297 297 297 304 303 302 303 302 303 304 303 303 302 303 303 303 303 305 307 308 310 317 320 323 321 319 316 317 316
289 290 290 290 290 290 289 290 290 290 291 289 296 295 298 296 293 293 299 299 300 298 300 301 301 302 302 302 302 300 300 301 302 305 307 308 311 318 322 322 319 317 316
288 288 288 288 288 288 288 288 288 288 289 288 288 289 290 291 295 288 287 290 292 293 296 297 297 299 300 301 301 301 299 299 300 302 303 305 307 309 315 321 321 319 317
287 287 287 287 287 287 286 287 287 287 287 287 287 287 286 285 285 285 284 285 287 289 291 293 295 296 300 300 298 296 296 297 299 300 302 303 305 307 308 312 319 321 319
286 285 286 285 285 285 285 286 286 286 285 285 285 285 286 285 286 285 284 284 284 287 288 292 293 296 295 299 298 293 295 297 298 299 300 301 303 305 306 308 311 318 319
285 285 285 284 284 284 284 284 284 284 284 284 284 284 284 285 285 285 283 282 281 282 286 287 291 294 296 296 294 293 293 296 296 297 299 300 301 302 304 306 308 312 318
284 284 283 283 283 283 283 283 283 282 283 283 283 283 283 283 284 284 284 284 282 278 280 285 285 291 292 291 290 291 292 292 294 294 295 298 299 301 302 304 307 309 316
283 283 283 282 282 282 282 282 282 282 282 282 282 282 282 282 282 283 283 283 283 281 279 283 285 287 288 288 289 289 290 291 292 292 293 295 296 298 300 301 304 308 314
282 281 281 281 280 280 280 280 280 280 280 280 281 280 280 281 281 281 281 281 281 281 279 282 284 285 285 285 287 288 289 290 291 291 292 293 294 295 297 299 301 303 310
281 280 279 279 279 279 279 278 278 279 278 278 278 278 278 279 278 279 279 279 279 280 279 278 280 281 282 284 285 285 286 287 289 290 291 292 292 293 295 297 298 300 303
279 279 278 278 277 277 277 278 278 278 278 278 278 277 277 277 276 277 277 276 277 277 278 278 278 280 281 283 282 284 284 286 288 289 290 290 291 292 293 294 296 298 298
278 277 277 276 276 276 276 277 277 277 278 278 277 277 276 276 275 275 275 275 276 276 276 276 276 277 278 280 282 281 281 285 285 287 289 289 290 291 291 292 293 294 296
277 276 276 275 275 275 275 276 277 277 277 276 276 276 276 275 275 275 275 275 274 274 274 274 274 275 275 276 276 278 278 281 282 283 285 287 289 290 291 291 291 292 294
274 274 273 273 272 273 273 275 276 276 275 275 274 274 274 275 274 275 275 276 276 274 273 273 273 272 273 275 276 276 275 275 274 281 281 281 284 285 289 290 291 291 291
273 273 272 272 272 272 272 275 275 275 274 274 273 273 273 273 274 273 274 275 275 276 277 275 273 273 273 274 275 274 274 275 275 278 279 277 281 281 284 285 288 290 290
272 272 272 271 271 271 272 273 274 274 274 273 273 273 272 273 273 273 273 274 274 275 275 276 276 276 276 277 277 276 276 277 278 279 279 275 279 280 283 286 287 287 289
271 271 271 270 269 269 271 273 273 273 273 273 273 273 273 273 275 276 276 274 275 276 278 279 279 280 280 280 280 278 276 275 273 275 278 276 277 277 279 280 283 285 288
270 270 270 269 268 267 269 271 273 273 272 273 274 274 276 275 277 278 276 275 274 275 276 277 277 278 279 279 279 278 277 273 273 273 277 275 275 276 273 279 281 284 286

GFSMA_sfc_thetae_042.txt.gz
Theta_e
326 326 326 326 324 326 325 322 320 319 315 315 316 312 309 306 304 303 301 308 308 310 312 314 318 320 325 329 330 331 327 324 324 323 320 320 321 321 323 324 324 323 323
321 320 319 318 318 319 318 316 315 314 313 311 312 311 310 309 308 305 304 303 309 308 309 314 316 317 319 322 324 326 329 329 329 328 322 319 318 319 320 322 322 322 322
316 315 313 312 313 314 313 313 313 312 311 310 309 309 308 309 310 308 306 304 305 308 309 311 311 313 314 315 317 320 323 325 326 328 329 322 319 317 319 320 321 321 319
311 311 312 311 312 312 312 310 308 308 307 306 305 306 307 307 305 306 308 305 303 302 305 309 309 310 311 312 314 316 317 319 321 324 328 324 320 319 319 319 319 319 318
309 307 306 306 306 305 304 306 306 304 301 300 301 302 305 304 302 304 303 301 301 300 299 306 308 308 309 311 313 313 314 315 316 317 320 325 326 323 322 320 319 319 318
302 301 301 300 300 299 298 298 302 302 298 297 300 302 303 302 300 299 300 301 300 301 300 299 299 300 308 309 312 313 314 314 313 314 315 317 322 325 325 322 321 320 320
296 295 294 295 293 292 291 292 296 296 295 294 295 296 301 299 296 298 299 298 299 297 296 298 298 299 300 307 308 311 313 314 314 313 313 313 314 317 323 324 323 322 321
291 291 290 289 289 289 288 288 288 290 289 290 289 293 292 296 293 296 296 292 293 292 292 293 293 291 292 297 301 307 308 309 310 310 311 311 312 313 315 318 323 325 323
289 289 289 288 288 287 286 286 286 286 285 286 286 288 286 284 287 292 288 287 287 287 288 289 291 289 292 294 299 301 304 305 305 306 308 309 310 311 312 314 316 319 324
287 288 287 287 286 286 285 285 286 285 284 282 285 287 284 282 281 282 283 284 286 286 285 287 286 287 292 291 296 299 300 300 299 300 301 303 306 308 310 311 313 314 317
286 286 286 285 285 285 284 284 283 283 283 282 282 282 282 281 281 278 276 279 282 283 284 285 285 287 290 291 290 294 297 298 298 298 298 299 301 303 306 309 311 312 314
284 284 285 284 283 283 283 283 283 282 282 282 281 281 281 279 278 278 276 278 278 280 283 284 285 285 288 290 294 293 293 294 295 295 295 296 298 300 302 303 307 310 310
282 282 282 282 282 282 282 282 281 280 281 280 280 280 281 281 281 280 278 277 276 279 280 283 283 285 287 287 288 290 291 292 293 293 294 295 297 298 299 301 302 305 308
282 282 281 281 281 281 281 281 280 280 280 279 279 279 280 280 281 280 279 277 275 276 277 278 281 283 284 285 287 290 286 289 290 292 293 294 295 296 297 298 300 301 302
283 281 281 280 280 280 280 280 279 278 278 279 278 278 279 279 280 279 279 279 276 273 274 276 277 281 283 283 284 283 283 286 289 290 290 291 292 294 295 296 298 299 300
281 280 280 280 279 279 278 278 278 278 277 277 278 277 277 278 277 277 277 278 277 275 273 277 277 279 280 281 281 281 281 284 285 287 288 289 290 292 293 294 296 297 298
280 279 279 279 278 278 277 277 277 277 276 276 276 276 276 277 275 275 275 275 275 274 272 274 276 277 277 277 278 279 280 279 280 284 286 288 290 291 292 293 294 295 296
279 278 278 278 278 277 277 276 276 276 276 276 276 276 275 278 275 274 274 273 273 273 272 271 274 274 274 276 276 276 278 279 279 282 286 286 287 288 289 290 291 292 293
278 278 277 277 277 277 276 276 276 276 276 276 276 276 275 275 274 274 273 272 273 274 273 272 272 274 274 274 274 275 276 276 279 281 282 283 283 284 286 287 289 290 289
277 277 277 276 276 276 276 276 276 276 276 276 277 276 275 275 274 273 273 273 274 273 272 272 271 272 272 274 274 273 273 275 275 277 279 280 281 282 283 284 285 285 286
277 277 276 275 275 275 276 275 276 275 275 275 275 276 275 275 277 277 275 274 273 272 271 271 271 271 271 272 272 274 273 274 274 275 275 276 277 277 278 281 281 283 285
276 275 275 274 273 275 278 277 277 275 276 275 274 275 274 275 275 277 278 278 277 273 271 270 271 272 272 273 274 273 273 272 270 276 274 275 277 276 277 278 282 284 284
275 274 273 273 273 273 278 278 277 276 275 274 274 275 274 275 274 274 275 277 277 278 279 276 273 273 273 274 274 273 273 273 273 275 275 274 276 276 277 279 282 283 283
273 273 272 273 272 273 278 278 277 275 274 274 274 274 274 273 274 274 274 274 275 276 276 277 276 276 276 277 277 277 276 276 277 277 278 271 275 274 276 277 281 282 283
272 271 272 270 270 270 277 277 276 273 273 273 275 274 274 273 276 278 276 273 273 273 276 277 278 279 279 278 277 274 272 271 270 272 276 273 274 274 275 275 277 281 282
273 273 272 270 269 267 275 277 276 273 267 272 273 275 277 276 278 279 276 272 270 270 271 272 270 271 273 273 275 274 273 270 271 270 275 273 273 274 271 275 276 276 276

GFSMA_sfc_thetae_045.txt.gz
Theta_e
324 324 322 322 321 321 321 319 315 315 313 312 312 310 309 307 305 303 301 308 313 313 316 320 320 319 319 320 322 327 328 330 330 329 327 322 321 320 320 323 323 323 324
319 318 317 316 315 317 317 315 311 313 309 309 309 309 308 307 308 306 303 303 313 312 314 316 317 317 318 318 318 319 321 324 326 327 328 327 322 320 320 321 322 323 322
312 311 310 310 311 310 309 309 310 311 307 307 306 307 306 307 305 305 304 302 302 308 311 313 314 315 316 318 318 317 317 318 319 321 323 326 323 321 321 321 321 321 321
309 308 308 307 305 305 307 305 304 301 299 299 299 301 305 304 303 303 301 300 300 300 303 308 310 310 312 315 317 318 318 317 316 316 317 320 322 326 323 322 321 320 320
303 302 301 300 300 299 299 303 300 297 294 295 298 300 302 300 299 300 299 299 297 295 297 298 304 300 304 309 312 314 317 318 316 316 316 316 317 319 324 325 323 322 321
297 297 295 294 294 293 293 297 295 294 291 290 298 299 298 296 298 296 297 294 293 292 293 291 294 292 299 304 308 311 314 314 314 313 313 314 314 316 317 319 324 324 323
292 291 291 290 289 289 288 289 292 288 287 287 294 296 296 292 295 291 291 288 288 290 289 289 291 289 289 300 304 307 309 310 310 309 311 312 312 313 314 316 318 320 323
290 289 288 288 287 287 286 286 286 286 285 286 287 290 289 293 288 290 286 286 284 286 286 288 287 287 287 291 296 302 304 307 307 306 306 306 307 309 312 313 314 316 318
288 288 287 287 286 286 285 284 283 284 282 284 284 286 280 279 283 289 284 283 283 283 283 285 285 286 287 290 293 296 301 303 303 303 303 303 304 305 306 308 312 313 314
286 287 286 286 285 285 284 284 284 282 282 280 282 284 281 280 277 277 280 281 282 282 282 283 283 285 287 288 292 294 295 297 297 298 299 299 301 302 304 305 307 309 312
285 285 284 284 284 284 283 282 282 282 282 280 280 280 280 279 279 276 275 276 279 281 281 282 282 283 285 287 287 289 292 293 293 294 295 296 298 300 302 303 305 306 307
283 283 283 282 282 282 282 281 281 280 280 280 280 280 279 277 277 276 275 275 276 278 280 281 281 282 283 283 286 288 289 290 291 292 292 294 296 297 299 301 303 304 305
281 281 281 281 281 281 281 281 280 280 279 278 279 278 279 279 279 279 277 275 274 277 278 279 280 281 283 283 283 286 286 288 289 290 291 292 293 294 295 297 299 301 302
281 281 280 280 280 280 280 280 279 279 279 278 278 278 279 279 279 279 278 276 273 275 275 276 278 279 280 281 282 284 281 284 286 288 289 290 291 292 293 295 296 298 299
282 280 280 279 279 279 279 279 278 277 277 277 277 277 277 278 278 277 278 277 275 271 272 274 275 278 278 279 280 280 279 282 284 285 286 288 289 290 292 294 295 296 297
280 279 279 279 278 278 278 278 277 277 276 276 277 276 276 277 276 276 276 276 275 273 271 274 274 276 277 278 279 278 278 280 281 283 284 285 287 289 290 291 292 294 296
279 279 279 278 278 277 277 276 276 276 276 276 276 276 276 276 275 274 274 274 274 273 271 273 274 275 275 275 276 276 277 276 277 281 283 284 285 286 287 287 288 290 292
279 278 278 278 277 277 277 276 276 276 275 276 276 276 275 277 274 274 273 273 272 272 271 271 273 273 273 274 274 274 276 277 276 279 283 283 284 284 285 285 286 287 288
278 277 277 277 277 276 276 276 276 276 276 276 276 275 275 275 274 273 273 272 272 274 272 272 271 273 273 274 273 274 275 275 277 280 281 282 282 283 283 284 284 285 284
277 277 276 276 276 276 276 276 276 276 276 276 276 276 275 274 274 273 273 273 274 273 273 272 271 272 273 274 274 273 273 275 275 277 279 279 281 281 282 283 283 282 283
277 276 276 276 275 275 276 275 275 275 275 275 275 276 275 275 277 277 275 274 273 272 272 271 271 272 272 273 272 274 273 274 275 276 275 276 277 277 278 280 280 281 283
277 276 275 274 274 276 279 280 277 275 276 275 274 275 275 274 275 278 278 278 278 273 267 269 272 273 273 273 274 274 273 272 271 277 275 275 277 276 277 278 281 282 283
275 274 274 274 273 274 280 280 280 276 275 274 274 274 275 275 274 274 275 277 277 278 279 277 273 273 272 273 273 273 273 273 272 275 274 273 275 274 276 278 281 282 283
274 274 273 273 273 273 279 280 280 276 274 274 274 274 274 274 274 274 273 273 274 275 276 276 274 274 274 275 273 273 272 271 272 273 275 270 274 274 276 276 280 282 282
273 273 272 271 271 271 279 280 279 274 274 273 274 274 274 273 276 278 275 273 272 273 276 277 277 277 276 276 275 271 267 267 267 270 273 271 273 272 274 274 277 280 281
274 273 273 271 271 269 277 279 279 274 269 272 272 274 276 276 278 279 276 271 268 270 272 269 268 270 271 271 273 271 269 266 266 264 270 268 269 270 268 272 275 274 275

GFSMA_sfc_thetae_048.txt.gz
Theta_e
325 323 321 321 321 321 319 313 312 311 309 310 310 308 307 306 304 302 304 312 315 317 319 320 321 321 322 321 321 320 320 321 322 323 324 327 328 324 323 322 323 324 324
320 318 316 315 315 316 314 312 311 309 306 306 307 307 306 305 304 302 301 303 310 312 314 316 314 317 319 320 321 321 321 319 318 318 319 320 324 325 324 323 322 323 323
314 312 312 312 312 312 309 308 304 303 299 300 301 305 304 303 301 300 299 297 297 301 306 309 308 309 313 315 317 318 319 320 319 318 318 318 319 320 321 325 323 323 322
308 305 303 301 302 303 302 299 297 295 295 297 298 301 300 299 298 297 295 293 293 293 296 303 301 304 308 310 314 315 317 318 318 317 316 315 315 317 319 320 321 324 323
301 300 298 296 297 298 298 294 291 292 291 295 299 298 297 296 296 293 290 290 290 289 289 295 296 298 303 305 310 312 313 313 312 311 312 313 314 314 315 316 318 320 323
295 293 291 291 293 293 292 290 288 287 287 292 296 294 294 292 292 288 286 287 287 287 287 288 287 288 297 301 305 308 310 310 310 309 309 308 309 310 310 312 314 316 318
291 290 289 289 288 288 287 288 287 285 285 286 294 293 291 289 286 286 285 284 284 285 285 286 285 285 288 296 301 304 307 307 307 306 305 305 305 306 307 308 310 313 315
288 288 287 286 286 286 285 285 286 284 284 283 289 289 287 290 286 284 283 283 281 283 284 285 284 285 286 288 295 299 301 302 302 302 302 302 302 304 305 306 308 309 311
287 287 286 286 285 285 283 283 283 283 281 282 282 284 278 277 279 285 281 281 281 281 281 282 284 284 285 287 289 289 295 296 298 299 299 300 301 302 303 305 306 307 308
285 285 285 285 284 284 283 283 283 282 282 280 281 282 280 279 276 275 278 279 280 281 280 280 281 283 284 284 286 288 291 293 293 295 296 297 299 300 301 302 304 305 306
283 284 284 283 283 283 282 282 281 281 281 280 279 279 278 278 277 276 274 276 278 278 279 280 280 280 282 282 282 284 288 289 291 291 292 293 295 297 299 300 301 302 303
282 282 283 282 282 282 281 281 280 280 280 279 279 279 278 277 276 275 274 275 275 277 278 279 279 280 280 280 282 285 286 287 288 289 290 291 292 294 296 298 299 300 301
280 280 281 281 281 281 281 281 280 279 279 278 278 278 278 278 279 278 277 275 274 276 277 277 278 279 280 279 279 283 283 285 286 288 288 289 290 291 293 295 296 298 299
281 280 280 281 280 280 280 279 279 279 278 277 277 278 278 278 279 278 278 275 273 274 274 275 277 277 278 278 280 282 278 282 285 286 287 287 288 289 291 293 295 295 296
281 280 279 279 279 279 279 278 278 277 277 277 277 277 277 277 277 277 277 277 275 271 271 273 274 276 276 277 278 278 277 279 283 284 285 286 287 288 289 290 291 292 294
280 279 278 278 278 278 278 277 277 277 276 276 276 276 276 276 276 276 276 276 275 273 270 274 273 274 276 277 278 277 276 280 280 282 283 284 286 287 287 287 289 290 291
279 279 279 278 278 277 277 277 276 276 276 276 276 276 276 276 274 274 274 274 274 273 271 273 273 274 274 274 275 275 276 276 276 280 282 284 285 285 285 286 287 287 288
279 279 278 278 277 277 277 276 276 276 275 276 276 275 275 277 274 274 273 273 272 272 271 270 273 273 273 274 274 274 276 277 276 279 282 283 283 284 284 285 285 286 286
278 278 278 277 277 277 276 276 276 276 276 276 276 275 275 275 274 273 273 272 272 274 272 271 271 273 273 274 274 275 275 276 277 280 281 282 282 283 283 284 284 284 284
278 277 277 277 277 276 277 276 276 276 276 276 276 276 275 274 274 273 273 273 273 272 272 271 271 272 273 274 275 273 273 275 275 277 279 280 281 281 282 282 283 282 282
278 278 277 276 277 276 277 276 276 275 275 275 275 276 275 275 277 277 275 273 273 271 272 271 271 272 272 273 272 273 272 273 274 275 275 276 276 276 277 280 280 281 282
277 277 277 276 275 276 280 281 277 275 275 275 274 274 275 274 276 279 279 280 278 270 260 267 272 273 272 272 272 272 272 270 268 274 272 272 274 274 276 276 280 282 282
277 276 276 276 275 274 282 282 282 276 275 274 274 274 275 275 274 273 276 278 278 278 279 277 274 272 272 272 273 271 271 270 269 271 271 269 273 273 275 277 280 281 282
277 276 276 275 274 275 281 283 282 276 275 275 274 274 274 274 274 273 273 272 273 274 275 276 275 274 274 275 274 272 270 268 269 270 272 267 270 270 273 273 277 279 281
276 276 276 274 273 273 281 282 281 275 275 274 274 274 273 273 275 278 275 271 273 274 278 279 279 278 277 277 274 270 264 264 264 266 269 268 269 268 271 271 274 278 279
277 275 275 273 272 271 279 282 281 275 270 273 273 274 276 275 277 278 275 273 270 271 272 267 268 270 271 270 272 270 268 263 264 263 269 266 267 268 265 270 272 272 273